Salina, KS

5:59 AM CDT on October 01, 2016 (GMT -0500)
Salina Municipal

Weather History for KSLN - July, 2014

Change the Weather History Date:

Saturday, July 26, 2014

  Actual Average Record
Temperature  
Mean Temperature 93 °F 81 °F  
Max Temperature 106 °F 93 °F 111 °F (1910)
Min Temperature 79 °F 70 °F 56 °F (1926)
Degree Days  
Heating Degree Days 0 0  
Month to date heating degree days 0 0  
Since 1 June heating degree days 1 7  
Since 1 July heating degree days 0 0  
Cooling Degree Days 28 16  
Month to date cooling degree days 391 415  
Year to date cooling degree days 980 868  
Since 1 June cooling degree days 748 740  
Growing Degree Days 42 (Base 50)    
Moisture  
Dew Point 63 °F    
Average Humidity 44    
Maximum Humidity 63    
Minimum Humidity 25    
Precipitation  
Precipitation T in 0.13 in 2.21 in (1990)
Month to date precipitation 0.71 3.67  
Year to date precipitation 16.29 19.77  
Sea Level Pressure  
Sea Level Pressure 29.77 in    
Wind  
Wind Speed 10 mph (SW)    
Max Wind Speed 23 mph    
Max Gust Speed 26 mph    
Visibility 10 miles    
Events      
T = Trace of Precipitation, MM = Missing Value Source: NWS Daily Summary

Daily Weather History Graph

Daily Weather History Graph

Search for Another Location

Airport or City:

Trip Planner

Search our weather history database for the weather conditions in past years. The results will help you decide how hot, cold, wet, or windy it might be!

Date:

Astronomy

Jul. 26, 2014 Rise Set
Actual Time 6:26 AM CDT 8:47 PM CDT
Civil Twilight 5:56 AM CDT 9:17 PM CDT
Nautical Twilight 5:19 AM CDT 9:54 PM CDT
Astronomical Twilight 4:38 AM CDT 10:35 PM CDT
Moon 6:19 AM CDT (7/26) 8:23 PM CDT (7/26)
Length of Visible Light 15h 20m
Length of Day
14h 20m
Waning Crescent, 0% of the Moon is Illuminated
Jul 26
Waning Crescent
Jul 26
New
Aug 3
First Quarter
Aug 10
Full
Aug 17
Last Quarter

Hourly Weather History & Observations

Time (CDT) Temp. Heat Index Dew Point Humidity Pressure Visibility Wind Dir Wind Speed Gust Speed Precip Events Conditions
12:53 AM 87.1 °F 86.5 °F 59.0 °F 39% 29.74 in 10.0 mi South 15.0 mph - N/A   Clear
1:53 AM 84.0 °F 84.0 °F 60.1 °F 44% 29.74 in 10.0 mi South 13.8 mph - N/A   Clear
2:53 AM 84.0 °F 84.4 °F 61.0 °F 46% 29.74 in 10.0 mi South 12.7 mph - N/A   Clear
3:53 AM 84.0 °F 84.0 °F 60.1 °F 44% 29.73 in 10.0 mi SSW 20.7 mph - N/A   Clear
4:53 AM 82.9 °F 82.8 °F 59.0 °F 44% 29.75 in 10.0 mi SW 12.7 mph - N/A   Clear
5:53 AM 81.0 °F 81.3 °F 59.0 °F 47% 29.75 in 10.0 mi SW 12.7 mph - N/A   Clear
6:53 AM 80.1 °F 80.7 °F 59.0 °F 48% 29.75 in 10.0 mi SSW 12.7 mph - N/A   Clear
7:53 AM 80.1 °F 80.9 °F 60.1 °F 50% 29.78 in 10.0 mi South 5.8 mph - N/A   Mostly Cloudy
8:53 AM 80.1 °F 81.1 °F 61.0 °F 52% 29.79 in 10.0 mi SE 6.9 mph - 0.00 in   Scattered Clouds
10:53 AM 84.0 °F 84.5 °F 62.1 °F 47% 29.80 in 10.0 mi West 4.6 mph - N/A   Clear
1:53 PM 100.0 °F 101.2 °F 61.0 °F 28% 29.75 in 10.0 mi Variable 4.6 mph - N/A   Clear
2:53 PM 102.9 °F 104.8 °F 62.1 °F 26% 29.75 in 10.0 mi Variable 6.9 mph - N/A   Clear
3:53 PM 104.0 °F 107.4 °F 64.0 °F 27% 29.74 in 10.0 mi SW 10.4 mph - N/A   Clear
4:53 PM 105.8 °F 108.3 °F 62.6 °F 24% 29.80 in 10.0 mi Variable 4.6 mph - N/A   Clear
5:53 PM 105.1 °F 107.8 °F 63.0 °F 25% 29.74 in 10.0 mi WSW 8.1 mph - N/A   Clear
6:53 PM 102.9 °F 106.8 °F 64.9 °F 29% 29.73 in 10.0 mi SW 10.4 mph - N/A   Clear
7:53 PM 100.9 °F 104.6 °F 64.9 °F 31% 29.75 in 10.0 mi WSW 10.4 mph - N/A   Clear
8:53 PM 95.0 °F 99.0 °F 66.9 °F 40% 29.77 in 10.0 mi SW 6.9 mph - N/A   Clear
9:53 PM 91.0 °F 95.6 °F 69.1 °F 48% 29.81 in 10.0 mi NW 3.5 mph - N/A   Clear
10:53 PM 90.0 °F 96.9 °F 72.0 °F 55% 29.84 in 10.0 mi NNE 12.7 mph - N/A   Clear
11:53 PM 88.0 °F 96.5 °F 73.9 °F 63% 29.86 in 10.0 mi North 4.6 mph - N/A   Clear